Location: Holyhead Bay
(53.3667°N, 4.6667°W)
Time: 23:22:38
(UTC+00:00)

Cosmos 1408 Rocket - Pass Details

Date: 17 April 2021
Orbit: 601 x 631 km, 82.6° (Epoch: 16 May)

Event Time Altitude Azimuth Distance (km) Brightness Sun altitude
Rises 23:20:19 0° 340° (NNW) 2,866 8.4 -24.6°
Reaches altitude 10° 23:22:46 10° 329° (NNW) 1,958 7.1 -24.7°
Maximum altitude 23:26:25 27° 271° (W) 1,171 5.1 -24.9°
Enters shadow 23:26:49 27° 262° (W) 1,183 5.0 -24.9°
